Probability
0 0 0 0 0 0 0 0 0 0 0 0 0 0 0 1 0 0 0 2 8 10 9 9 11 11 12 13 10 8 8 9 8 6 4 3 2 1 1 1 1 0 1 2 2 2 1 0 1
0 0 0 0 0 0 0 0 0 0 0 0 0 1 1 2 2 2 2 5 10 13 12 11 13 14 14 15 13 10 8 7 7 5 4 4 4 3 1 1 1 1 0 1 1 1 0 0 1
0 0 0 0 0 0 0 0 0 0 0 0 1 2 4 5 6 7 9 13 17 18 16 17 20 21 19 18 16 13 9 7 7 7 6 6 5 4 2 2 2 1 0 0 0 0 0 0 1
1 2 1 0 0 0 0 0 0 0 0 0 1 4 7 8 10 12 15 21 24 22 19 21 26 27 24 20 18 15 11 9 10 9 7 6 5 4 3 2 2 1 0 0 0 0 0 0 0
2 3 1 0 0 0 0 0 0 0 0 0 2 8 12 12 13 16 21 26 27 25 23 23 27 29 24 21 20 18 15 13 11 9 7 6 4 4 3 2 1 0 0 0 0 0 0 0 0
3 3 1 0 0 0 0 0 0 0 0 0 3 11 17 17 17 21 26 28 28 28 27 26 26 26 23 20 20 20 19 17 13 10 8 7 6 5 3 1 0 0 0 0 0 0 0 0 0
1 1 0 0 0 0 0 0 0 0 0 0 3 11 19 21 22 25 28 29 30 31 30 27 23 21 20 19 19 19 20 19 17 14 11 9 8 6 4 2 0 0 1 1 1 1 0 0 0
0 0 0 0 0 0 0 0 0 0 0 0 3 9 17 23 27 30 30 31 32 32 30 26 21 18 18 19 18 16 17 18 16 13 11 8 7 6 4 2 1 0 1 2 2 2 1 0 0
0 0 0 0 0 0 0 0 0 0 0 1 5 11 19 27 32 33 32 31 29 28 27 26 23 19 17 17 16 14 13 13 12 9 6 5 4 4 3 2 1 0 0 1 2 2 1 0 0
0 0 0 0 0 0 0 0 0 0 1 4 10 18 26 32 34 32 30 27 24 23 24 24 23 20 16 15 14 12 11 11 9 6 3 2 1 1 1 1 1 0 0 0 1 1 1 0 0
0 0 0 0 0 0 0 0 0 0 2 5 14 24 32 34 33 30 26 22 19 18 20 21 21 19 15 12 11 10 9 9 8 5 3 1 0 0 0 0 0 0 0 0 0 0 0 0 0
0 0 0 0 0 0 0 0 0 0 1 5 14 26 33 34 33 30 27 22 17 16 16 17 18 16 13 10 9 8 7 7 6 4 3 2 1 0 0 0 0 0 0 0 0 0 0 0 0
0 0 0 0 0 0 0 0 0 0 2 6 16 27 33 32 31 31 29 23 17 15 14 15 14 12 11 9 8 7 6 5 4 3 3 2 1 0 0 0 0 0 0 0 0 0 0 0 0
0 0 0 0 0 0 0 0 0 1 4 10 19 27 30 29 29 29 27 22 17 14 13 14 13 9 8 8 7 6 6 4 3 3 3 1 0 0 0 0 0 0 0 0 0 0 0 0 0
0 0 0 0 0 0 0 0 0 2 6 13 19 23 26 26 25 23 22 20 17 15 13 13 11 8 6 6 6 6 5 4 3 3 2 1 0 0 0 0 0 0 0 0 0 0 0 0 0
0 0 0 0 0 0 0 0 0 2 6 12 18 20 21 21 20 18 17 18 18 16 13 11 10 7 5 4 6 5 4 3 3 3 2 1 0 0 0 0 0 0 0 0 0 0 0 0 0
0 0 0 0 0 0 0 0 1 2 6 11 16 16 14 15 15 15 15 16 17 16 14 12 11 8 5 4 5 4 3 3 3 2 1 0 0 0 0 0 0 0 0 0 0 0 0 0 0
0 0 0 0 0 0 0 0 1 2 5 10 12 10 8 9 11 13 14 15 15 16 15 14 13 10 6 4 4 3 2 2 1 1 0 0 0 0 0 0 0 0 0 0 0 0 0 0 0
0 0 0 0 0 0 0 0 0 1 4 8 8 7 6 7 9 10 11 12 14 15 15 15 14 10 7 5 3 1 1 1 0 0 0 0 0 0 0 0 0 0 0 0 0 0 0 0 0
0 0 0 0 0 0 0 0 0 1 2 4 4 4 6 6 7 6 6 9 13 14 14 14 14 12 9 6 3 1 0 0 0 0 0 0 0 0 0 0 0 0 0 0 0 0 0 0 0
0 0 0 0 0 0 0 0 0 0 1 1 1 2 4 6 6 4 4 6 10 13 14 14 14 13 10 7 5 2 1 0 0 0 0 0 0 0 0 0 0 0 0 0 0 0 0 0 0
0 0 0 0 0 0 0 0 0 0 0 0 0 1 3 5 5 4 3 4 6 10 13 14 13 13 11 8 6 5 3 1 0 0 0 0 0 0 0 0 0 0 0 0 0 0 0 0 0
0 0 0 0 0 0 0 0 0 0 0 0 0 1 1 2 3 3 3 3 4 7 11 12 12 11 9 6 5 6 5 3 1 0 0 0 0 0 0 0 0 0 0 0 0 0 0 0 0
0 0 0 0 0 0 0 0 0 0 0 0 0 0 0 0 1 2 3 3 4 5 7 8 9 9 8 5 4 4 5 4 2 1 0 0 0 0 0 0 0 0 0 0 0 0 0 0 0
0 0 0 0 0 0 0 0 0 0 0 0 0 0 0 0 0 1 2 3 3 3 4 5 6 7 7 5 4 3 4 3 3 2 1 0 0 0 0 0 0 0 0 0 0 0 0 0 0
0 0 0 0 0 0 0 0 0 0 0 0 0 0 0 0 0 1 2 3 2 2 2 3 4 4 5 5 4 3 3 3 3 2 1 0 0 0 0 0 0 0 0 0 0 0 0 0 0
0 0 0 0 0 0 0 0 0 0 0 0 0 0 0 0 0 1 2 3 2 1 2 3 4 4 4 4 3 3 3 3 3 2 1 0 0 0 0 0 0 0 0 0 0 0 0 0 0
0 0 0 0 0 0 0 0 0 0 0 0 0 0 0 0 0 0 1 3 2 1 1 3 4 4 3 3 2 1 2 2 2 2 1 0 0 0 0 0 0 0 0 0 0 0 0 0 0
0 0 0 0 0 0 0 0 0 0 0 0 0 0 0 0 0 0 1 2 2 1 1 2 3 3 3 3 2 1 1 1 1 1 0 0 0 0 0 0 0 0 0 0 0 0 0 0 0
0 0 0 0 0 0 0 0 0 0 0 0 0 0 0 0 0 0 1 2 2 1 0 1 3 3 3 3 2 2 2 2 1 0 0 0 0 0 0 0 0 0 0 0 0 0 0 0 0
Wind_Speed
3 2 2 4 5 3 4 5 3 2 2 2 2 4 6 6 6 4 2 5 9 10 9 12 15 16 16 15 15 15 15 15 15 15 15 14 14 14 14 14 14 14 14 14 15 15 15 14 14
0 1 4 4 4 3 6 5 4 4 3 2 2 2 3 1 1 4 4 5 10 11 9 10 14 16 16 16 16 15 15 15 14 14 14 14 14 14 14 14 14 14 14 14 14 14 14 14 13
0 2 3 4 4 7 6 4 5 3 2 1 2 1 2 2 2 4 4 9 9 9 8 10 15 16 16 16 15 15 15 14 14 14 14 14 14 14 14 14 14 14 14 13 14 13 13 13 13
2 3 3 3 7 6 5 3 3 1 0 0 3 2 1 1 2 3 7 9 10 8 7 10 15 15 15 15 15 15 14 14 14 14 14 14 14 14 14 13 13 13 13 13 13 13 13 13 13
3 3 3 3 7 5 4 3 2 1 2 1 3 3 1 3 3 7 8 9 10 9 7 10 13 15 15 14 14 14 14 14 14 14 14 14 14 14 13 13 13 13 12 13 12 12 12 12 12
2 3 4 7 7 4 4 3 2 1 1 2 3 3 1 2 6 8 8 8 8 9 8 9 13 13 13 13 14 13 13 14 13 13 14 14 14 13 13 13 12 12 12 12 12 12 12 12 12
3 3 5 5 5 4 4 3 3 3 3 4 4 5 2 3 5 8 8 8 8 8 8 7 8 9 12 12 12 12 12 13 13 13 13 13 13 13 13 12 12 11 12 12 12 12 12 12 12
3 3 4 4 5 6 3 3 2 4 3 2 4 6 5 6 7 8 8 7 8 7 7 7 7 7 6 7 11 11 12 12 13 12 12 12 12 12 12 11 11 11 11 11 11 11 11 11 11
2 3 6 6 6 5 2 2 0 1 3 1 1 2 3 11 11 10 8 7 8 8 7 7 7 7 7 6 8 9 11 12 11 10 12 10 6 6 6 8 11 11 11 10 11 11 11 11 10
4 7 8 4 4 3 2 3 3 2 2 1 1 2 8 12 13 13 11 11 10 9 8 7 7 7 7 6 6 5 5 6 6 5 6 5 5 5 6 9 10 11 10 10 11 11 10 8 4
5 6 3 3 2 1 1 1 1 5 3 5 6 9 12 12 12 12 11 10 9 9 8 7 7 7 6 5 5 4 3 4 5 6 6 5 4 4 4 3 5 5 7 5 6 6 4 4 3
4 4 3 2 1 1 1 1 1 3 4 3 7 13 14 14 13 12 12 9 8 9 8 8 8 7 6 5 5 4 4 3 3 4 5 5 4 3 3 3 3 3 2 3 3 3 4 4 4
4 2 2 2 2 2 1 1 2 4 3 2 7 11 13 12 10 9 8 8 8 9 9 8 8 8 7 6 5 4 4 4 4 4 4 5 4 4 3 3 3 3 2 3 3 3 3 3 3
4 2 2 2 2 1 2 3 1 4 1 5 9 11 11 10 9 8 8 8 9 10 9 8 8 8 7 6 5 4 4 4 4 3 4 4 4 4 4 3 3 2 2 2 2 3 3 2 2
2 2 3 3 2 2 2 4 5 4 4 6 8 8 8 7 7 8 9 9 10 10 9 8 8 7 7 6 5 4 4 4 4 3 4 4 4 4 4 3 3 2 2 3 3 3 2 2 2
3 3 5 5 4 2 4 8 5 4 7 7 7 6 6 5 6 5 6 6 8 9 9 8 8 8 7 6 5 4 4 4 3 3 3 4 4 5 4 3 2 2 2 2 3 2 2 2 2
3 5 6 4 4 3 5 6 3 3 7 7 7 6 6 4 4 4 5 7 8 9 10 8 8 8 7 6 5 4 4 4 3 3 3 3 4 4 4 3 2 3 3 2 2 2 2 1 2
7 5 4 6 3 4 5 5 3 2 5 7 6 5 5 6 5 4 5 6 7 8 8 9 8 7 7 5 5 4 4 3 3 3 3 4 3 4 4 3 3 3 3 2 2 2 2 1 1
4 4 4 4 2 4 5 5 4 2 4 5 5 6 6 5 3 3 4 5 7 7 7 8 9 8 7 5 4 4 3 2 2 2 3 4 4 4 4 3 3 3 3 2 2 2 2 2 2
5 4 3 2 1 2 3 4 3 3 5 6 7 6 6 3 2 3 4 5 7 9 8 8 9 9 8 5 4 3 3 3 2 2 3 3 3 3 3 4 3 3 3 3 2 2 2 2 2
5 6 4 2 1 1 1 3 3 3 2 2 3 4 4 5 5 5 4 5 6 8 9 8 9 9 8 7 5 5 4 3 2 2 2 2 3 3 3 3 3 3 3 3 2 2 3 2 1
5 4 3 3 2 1 3 4 5 3 2 3 3 3 4 3 3 3 4 5 5 6 6 7 8 8 8 8 7 8 5 4 4 3 2 2 3 3 3 3 3 3 2 3 2 2 2 3 1
2 0 2 3 2 0 1 3 6 2 4 6 5 5 4 4 4 4 5 6 4 4 5 5 6 7 7 7 8 8 5 3 3 3 4 3 2 3 3 3 3 3 2 2 2 2 2 2 2
2 3 2 1 1 4 6 5 6 5 7 5 4 5 5 4 3 3 3 3 3 3 3 5 6 6 6 7 7 7 8 6 6 5 4 3 2 2 2 3 3 2 2 2 2 2 2 2 2
4 4 2 2 3 5 5 5 7 4 4 6 5 5 4 3 3 3 3 3 3 4 4 4 6 6 6 7 7 6 7 7 8 6 6 5 3 2 2 3 3 2 2 2 2 2 2 2 2
4 5 4 4 4 2 3 7 6 2 2 2 2 2 1 1 2 3 4 3 3 4 5 5 6 5 6 6 6 5 5 4 4 4 4 4 3 3 3 3 3 2 2 2 2 2 2 2 2
4 3 2 2 0 1 4 4 5 2 2 1 0 1 1 1 1 1 2 2 2 3 4 5 5 5 5 5 5 5 5 5 4 4 3 3 3 3 4 4 3 3 3 3 2 2 2 2 2
2 4 3 3 3 2 3 3 4 3 2 1 0 1 1 1 1 1 0 1 1 1 1 2 3 4 4 4 4 4 4 4 4 4 4 4 4 4 4 4 4 3 3 2 2 2 1 2 1
2 2 2 2 2 3 3 4 2 4 3 3 2 1 1 0 0 1 1 1 2 2 2 2 2 3 3 4 4 4 4 4 4 4 4 4 4 4 4 4 4 4 3 2 2 2 2 1 1
1 3 4 3 2 2 2 5 2 1 2 1 1 1 1 1 1 1 2 2 3 2 2 2 2 2 2 3 4 4 4 4 4 4 4 4 4 4 4 4 4 3 3 3 3 3 2 2 2
Wind_Direction
329 18 63 61 62 62 233 237 222 221 217 216 166 155 161 165 168 188 126 133 132 141 149 147 144 140 136 133 128 124 121 118 115 114 113 111 108 104 101 99 95 92 90 87 85 82 80 79 77
324 56 61 70 113 197 250 235 218 220 195 132 76 98 114 173 99 118 132 140 135 138 142 145 143 140 138 135 131 128 126 121 119 116 114 112 109 106 103 99 95 92 90 88 86 83 80 78 77
156 70 96 101 163 196 226 223 216 248 220 148 107 74 131 151 139 148 146 140 129 131 135 140 141 141 138 136 134 131 129 124 121 118 116 113 110 107 103 100 96 94 92 89 86 84 81 79 77
102 70 73 135 215 220 221 235 205 190 272 136 138 118 90 37 151 144 134 135 128 129 132 139 137 138 137 136 134 133 130 126 123 121 118 115 111 107 104 101 98 95 92 90 86 84 81 80 79
71 105 135 214 230 241 240 250 213 180 171 164 144 137 93 359 98 123 129 132 132 131 131 138 137 137 136 136 135 132 130 127 125 123 120 116 112 109 105 102 99 97 95 91 87 84 81 80 79
94 113 163 216 227 244 252 230 185 181 172 148 138 128 112 96 118 129 128 127 130 129 127 132 132 131 133 133 132 133 131 128 126 124 121 117 114 110 106 103 100 98 95 91 88 85 81 78 77
152 155 194 203 213 233 236 193 175 184 185 197 162 131 134 144 133 130 125 123 123 122 120 119 122 123 125 127 127 127 127 126 123 121 118 114 112 111 108 104 100 97 94 91 88 85 81 78 76
158 150 191 203 196 226 212 171 187 180 204 162 146 150 175 169 140 128 121 119 121 119 118 116 114 114 116 120 121 121 119 117 116 113 110 106 104 103 102 99 98 96 94 92 90 86 81 78 75
131 178 209 202 191 220 194 168 255 142 129 123 173 194 175 144 140 135 128 127 132 130 124 122 119 115 113 114 114 114 113 109 106 104 102 98 91 90 90 91 94 94 93 93 91 85 81 75 70
167 209 218 199 192 205 195 183 177 118 129 137 60 71 128 145 150 150 152 152 153 151 139 131 127 123 120 116 107 102 100 99 96 100 100 94 89 85 86 82 86 87 86 88 85 80 75 68 58
189 214 216 226 224 217 176 189 187 143 195 198 176 158 152 158 159 161 163 161 160 156 144 138 131 126 123 120 115 105 101 99 98 101 102 100 89 83 76 75 69 69 73 70 72 67 61 62 61
200 232 221 235 239 202 193 159 170 201 224 208 174 160 161 166 168 169 166 161 155 153 148 141 135 128 124 121 119 117 114 109 109 108 109 109 103 91 85 79 73 68 71 76 69 72 66 64 60
217 245 230 257 273 259 259 215 206 250 274 129 141 153 164 167 170 165 156 151 153 154 151 146 140 137 134 126 128 124 123 121 120 114 108 112 114 110 99 88 78 73 76 82 80 77 74 67 57
205 224 260 263 261 252 217 265 212 249 152 131 149 163 170 170 167 155 154 161 164 161 156 148 144 143 138 135 133 133 128 123 117 115 117 115 117 118 111 99 87 77 78 81 90 90 84 71 63
154 197 264 245 219 219 157 268 232 216 152 158 167 170 170 172 167 169 171 170 167 161 155 150 148 142 140 137 135 130 129 126 122 119 118 116 116 119 115 107 97 86 84 82 79 75 74 67 55
136 179 228 234 195 211 164 242 246 183 165 179 178 175 175 178 179 180 175 168 161 155 157 155 152 145 141 137 132 130 128 126 123 120 118 115 115 119 116 111 105 99 92 86 87 74 64 54 45
171 205 214 229 190 176 183 236 249 178 171 184 183 180 181 180 183 182 179 171 164 159 157 156 151 149 145 134 125 122 123 120 121 121 120 118 115 118 120 117 111 108 96 85 90 69 74 62 30
193 199 201 208 200 172 201 235 269 187 176 186 185 183 184 191 201 188 176 166 160 156 156 156 151 146 138 127 114 109 105 107 111 119 125 125 121 119 117 113 110 108 100 79 71 74 56 62 23
177 183 210 226 214 171 203 232 248 206 176 190 192 193 197 204 193 165 166 161 150 152 158 162 158 153 147 145 143 141 141 129 118 121 124 127 126 126 120 118 115 113 112 112 104 87 65 36 15
200 200 212 270 248 185 194 249 255 220 195 195 194 196 202 198 170 167 166 164 164 167 170 171 168 164 163 162 151 133 128 124 123 119 114 123 129 132 128 126 133 128 117 107 99 96 92 48 33
218 209 201 184 20 41 106 288 260 251 212 201 199 190 190 187 190 182 175 177 174 174 177 180 176 169 164 151 129 109 96 89 102 121 132 133 133 128 126 131 135 133 131 139 135 120 117 114 28
228 215 206 171 136 240 175 232 260 233 236 227 222 210 205 209 192 184 178 179 185 185 178 176 171 165 163 156 155 154 158 166 179 167 155 139 133 133 131 132 129 134 133 138 144 124 121 128 124
217 157 186 178 154 175 196 206 265 211 227 233 224 220 217 210 191 191 193 189 186 174 168 165 163 162 163 164 168 165 158 155 138 133 137 136 129 129 129 132 131 133 134 141 133 127 120 128 143
132 73 77 72 112 225 206 194 253 217 214 222 224 218 219 212 198 192 185 165 155 137 146 155 161 163 161 163 170 171 164 155 147 153 159 155 142 131 128 130 135 141 137 143 150 144 135 139 135
130 123 133 190 212 235 177 191 241 230 219 215 215 215 217 207 192 182 172 165 158 155 161 162 165 165 166 169 174 174 168 166 169 170 172 165 160 166 173 154 153 149 145 143 135 143 147 154 151
180 163 168 186 205 251 171 213 242 249 262 236 203 175 162 192 196 188 187 178 171 171 170 168 173 171 168 174 176 167 160 162 170 173 168 171 174 174 167 160 157 149 143 138 132 141 159 149 159
158 179 154 120 89 184 232 269 302 314 341 2 105 105 138 202 201 193 176 164 164 173 177 176 173 172 170 170 164 161 162 163 165 163 155 155 155 153 152 152 153 152 148 145 144 150 171 158 173
143 144 128 141 166 220 250 245 250 277 290 313 329 268 301 10 43 37 92 130 153 157 143 147 156 167 165 159 160 157 159 162 158 154 158 159 159 153 152 155 156 156 152 150 150 157 170 163 192
125 139 142 147 171 174 228 262 238 229 232 223 227 229 274 335 43 42 45 56 58 71 94 108 128 136 150 158 151 144 147 147 150 159 167 163 160 159 163 166 163 165 164 163 159 176 177 182 208
160 174 157 167 209 189 193 271 322 287 300 289 292 334 25 24 51 67 65 63 62 63 78 99 112 136 151 151 141 143 143 142 149 158 164 160 160 165 167 166 164 169 172 175 175 187 192 194 217